Location: Darlington Observatory
(36.4817°N, 105.8156°W)
Time: 23:48:01
(UTC-06:00)

Daily predictions for brighter satellites

Satellite Brightness Start Highest point End
(mag) Time Altitude Azimuth Time Altitude Azimuth Time Altitude Azimuth
Cosmos 1610 Rocket 4.5 20:01:07 10° S 20:07:10 68° E 20:13:17 10° NNE
In-Cosmos 22 Rocket 4.1 20:04:48 10° N 20:10:15 75° E 20:15:34 10° SSE
Cosmos 1437 4.2 20:07:44 10° SSW 20:10:47 43° W 20:13:51 10° N
FREGAT/IRIS 2.7 20:07:58 10° S 20:10:54 76° W 20:13:51 10° NNW
Haruka 4.4 20:04:23 10° W 20:15:53 45° SSW 20:19:49 10° SE
Cosmos 1633 Rocket 3.4 20:16:56 10° N 20:21:05 43° E 20:25:14 10° SSE
NOSS 3-3 (A) 4.1 20:17:40 10° SSW 20:23:37 84° WNW 20:30:08 10° NNE
NOSS 3-3 (C) 4.1 20:17:45 10° SSW 20:23:44 84° WNW 20:30:16 10° NNE
Meteor 2-15 Rocket 4.5 20:21:48 10° N 20:27:55 65° E 20:33:58 10° SSE
SL-16 R/B 3.6 20:26:48 10° SE 20:30:15 17° E 20:33:42 10° ENE
Cosmos 1515 Rocket 4.3 20:26:39 10° SSE 20:30:38 33° E 20:34:39 10° NNE
Nadezhda 3 Rocket 4.0 20:27:22 10° N 20:33:43 74° E 20:40:03 10° SSE
ATLAS CENTAUR R/B 1.6 20:33:33 10° SW 20:37:08 63° WNW 20:40:53 10° NNE
SJ-6B 3.3 20:36:25 10° S 20:40:26 64° W 20:44:23 10° NNW
Cosmos 2228 Rocket 3.4 20:36:51 10° SSE 20:40:59 43° E 20:45:09 10° NNE
BREEZE-M DEB (TANK) 3.8 20:41:24 10° NW 20:45:06 27° NNE 20:46:35 16° ENE
H-2A R/B 3.8 20:45:54 12° E 20:47:22 13° ENE 20:49:40 10° NE
Cosmos 1408 3.6 20:44:31 10° NNE 20:47:45 28° ENE 20:49:08 22° ESE
Cosmos 1328 Rocket 3.5 20:43:40 10° S 20:48:04 82° E 20:52:31 10° N
Meteor 2-3 Rocket 3.7 20:43:27 10° N 20:49:04 71° E 20:54:42 10° SSE
Cosmos 1869 4.2 20:47:35 18° SE 20:49:39 29° E 20:53:09 10° NNE
Cosmos 1939 Rocket 2.7 20:47:30 11° SSE 20:51:12 73° ENE 20:55:06 10° N
Envisat 3.6 20:47:51 10° S 20:52:50 58° W 20:57:51 10° NNW
ERS-2 2.6 20:50:34 10° S 20:54:10 61° WSW 20:57:49 10° NNW
Cosmos 1980 3.7 20:49:58 10° SSW 20:55:39 85° ESE 21:01:23 10° NNE
Cosmos 1455 2.9 20:56:15 10° SSW 20:59:59 56° W 21:03:48 10° N
YAOGAN 6 2.8 20:59:07 11° S 21:02:32 68° W 21:06:10 10° NNW
Cosmos 1470 Rocket 3.5 21:00:56 10° N 21:05:21 72° E 21:08:24 20° SSE
Cosmos 2056 Rocket 3.8 21:01:08 10° S 21:06:18 47° ESE 21:11:28 10° NNE
Resurs 01 Rocket 1.6 21:03:07 14° SSE 21:06:59 86° WSW 21:11:27 10° NNW
SAR-Lupe-3 4.5 21:04:16 10° NNE 21:07:51 87° WNW 21:11:26 10° SSW
Cosmos 2333 Rocket 3.4 21:03:40 10° SW 21:09:03 45° WNW 21:14:29 10° N
Cosmos 1844 Rocket 4.0 21:04:31 10° NW 21:09:43 38° WSW 21:14:52 10° S
Cosmos 1892 4.3 21:07:48 10° NNW 21:11:22 35° W 21:14:53 10° SSW
OAO 2 Rocket 4.2 21:11:15 10° W 21:16:04 39° SSW 21:18:01 28° SSE
Cosmos 1959 Rocket 4.4 21:10:21 10° S 21:16:28 71° E 21:22:34 10° NNE
Cosmos 2098 Rocket 3.1 21:15:16 22° SSE 21:18:08 56° E 21:21:58 10° NNE
Cosmos 2219 Rocket 4.1 21:14:20 10° WSW 21:19:19 31° WNW 21:24:20 10° N
Cosmos 405 4.4 21:18:37 10° NNE 21:20:51 25° NE 21:20:51 25° NE
Cosmos 1727 Rocket 4.3 21:16:49 10° N 21:22:43 46° E 21:24:55 33° SE
Cosmos 2237 Rocket 2.7 21:17:14 10° SSW 21:22:46 61° WNW 21:28:20 10° NNE
Cosmos 1624 Rocket 3.8 21:17:54 10° S 21:23:03 73° ESE 21:28:14 10° NNE
Genesis I 3.7 21:19:07 10° NW 21:23:09 59° WSW 21:24:40 34° S
Centaur D-1A AC-31 3.0 21:09:52 10° WSW 21:23:54 32° S 21:25:38 27° SSE
Sakura Rocket 4.0 21:21:14 10° WSW 21:25:14 28° S 21:25:21 28° S
Cosmos 1190 Rocket 4.5 21:23:24 10° N 21:28:24 41° ENE 21:29:25 37° E
ATLAS 2A CENTAUR R/B 4.2 21:09:51 10° SW 21:29:02 44° S 21:33:58 30° SE
Cosmos 1151 Rocket 3.9 21:25:51 10° SSW 21:29:57 48° W 21:34:06 10° N
OAO 3 Copernicus 4.3 21:27:12 10° WSW 21:32:08 59° SSE 21:33:07 49° ESE
Cosmos 1933 Rocket 3.9 21:29:30 10° NNW 21:33:49 63° W 21:35:57 28° SSW
Cosmos 2278 Rocket 2.3 21:29:41 10° NNW 21:35:21 75° WSW 21:38:03 32° S
Spot 2 Rocket 3.9 21:32:05 20° S 21:35:32 61° WSW 21:40:35 10° NNW
Cosmos 405 Rocket 4.1 21:37:07 27° NE 21:37:07 27° NE 21:39:14 10° NNE
NOAA 11 4.3 21:32:48 24° S 21:36:15 73° WSW 21:41:46 10° NNW
Cosmos 2218 Rocket 4.1 21:30:14 10° S 21:36:34 79° W 21:43:00 10° N
ATLAS 2AS CENTAUR R/B 3.3 21:32:22 10° NW 21:39:59 60° WSW 21:44:15 25° S
SL-08 R/B 4.5 21:35:12 13° S 21:40:59 89° E 21:47:26 10° N
Cosmos 1862 4.4 21:38:22 10° N 21:41:10 33° NE 21:41:10 33° NE
ASTRO E2 4.2 21:42:38 10° WSW 21:44:45 25° SW 21:44:45 25° SW
Cosmos 2366 rocket 4.2 21:40:21 10° SSW 21:46:31 73° W 21:52:49 10° N
Cosmos 1825 3.0 21:43:31 10° NNW 21:47:09 46° W 21:47:58 39° SW
Helios 1A 4.4 21:54:51 28° NE 21:54:51 28° NE 21:57:24 10° N
Cosmos 1869 Rocket 3.9 21:52:11 10° N 21:55:47 54° NNE 21:55:47 54° NNE
GEOS 3 Rocket 3.8 21:54:27 10° NE 21:58:49 53° ENE 21:58:49 53° ENE
ERS-1 Rocket 2.9 22:10:03 74° NE 22:10:03 74° NE 22:14:49 10° N
NOSS 3-4 (A) 3.8 22:03:29 10° NNW 22:10:39 76° ENE 22:12:16 57° SE
NOSS 3-4 (C) 3.8 22:03:35 10° NNW 22:10:45 75° ENE 22:12:21 57° ESE
ARGOS 3.2 22:10:53 62° SSW 22:11:37 72° WSW 22:16:59 10° NNW
Cosmos 614 Rocket 4.5 22:06:36 10° N 22:11:01 48° NE 22:11:01 48° NE
MetOp-B 4.0 22:11:24 74° SSW 22:11:51 82° WSW 22:17:14 10° NNW
CZ-4C R/B 3.6 22:15:43 24° NE 22:15:43 24° NE 22:18:00 10° NE
SL-16 R/B 2.7 22:08:14 10° SW 22:13:47 58° WNW 22:19:22 10° NNE
Cosmos 1943 Rocket 4.3 22:15:14 10° NNE 22:17:25 13° NE 22:17:25 13° NE
Cosmos 407 Rocket 3.6 22:12:53 10° NNW 22:17:56 68° WSW 22:17:56 68° WSW
SPOT 1/Viking Rocket 4.1 22:19:07 46° NE 22:19:07 46° NE 22:23:16 10° N
USA 267 3.1 22:12:04 10° NE 22:23:21 19° SSW 22:25:03 10° SW
DMSP B5D2-2 4.5 22:13:59 10° NNE 22:18:01 52° NE 22:18:01 52° NE
USA 81 4.4 22:17:46 10° NNW 22:22:56 58° W 22:23:28 55° WSW
H-2A R/B 2.2 22:26:31 64° W 22:26:31 64° W 22:31:11 10° NNW
Terra 3.5 22:31:28 24° NNE 22:31:28 24° NNE 22:33:46 10° N
Cosmos 1934 Rocket 4.3 22:40:17 54° NNE 22:40:17 54° NNE 22:44:58 10° NNE
Cosmos 2297 4.5 22:43:37 10° NW 22:48:36 45° W 22:48:36 45° W
Cosmos 1452 Rocket 4.3 22:49:32 48° NW 22:49:32 48° NW 22:54:10 10° N
Cosmos 2344 3.8 22:43:02 10° SW 22:50:36 65° NW 22:58:45 10° NNE
Cosmos 2369 Rocket 3.6 22:48:34 10° N 22:52:10 30° NNE 22:52:10 30° NNE
SPOT 5 4.3 22:56:16 32° NW 22:56:16 32° NW 22:58:46 10° NNW
Lacrosse 5 3.8 22:54:27 10° NNW 22:57:31 22° NNE 22:57:31 22° NNE
ATLAS 5 CENTAUR R/B 3.6 23:12:59 10° NNW 23:17:13 36° NNE 23:17:13 36° NNE
